Regional Weather Roundup
Issued by NWS Mt. Holly, NJ

Home | Current Version | Previous Version | Text Only | Print | Product List | Glossary On
Versions: 1 2 3 4 5 6 7 8 9 10 11 12 13 14 15 16 17 18 19 20 21 22 23 24 25 26 27
000
ASUS41 KPHI 031012
RWRPHI

REGIONAL WEATHER ROUNDUP
NATIONAL WEATHER SERVICE MOUNT HOLLY NJ
600 AM EDT TUE AUG 03 2021

NOTE:  "FAIR" INDICATES FEW OR NO CLOUDS BELOW 12,000 FEET WITH NO
SIGNIFICANT WEATHER AND/OR OBSTRUCTIONS TO VISIBILITY.

 * = STATION DOES NOT REPORT PRECIPITATION (E.G. RAIN, SNOW, ETC.)
        OR FOG.

NJZ015>026-031100-
SOUTHERN NEW JERSEY

CITY           SKY/WX    TMP DP  RH WIND       PRES   REMARKS
POMONA         MOCLDY    63  58  83 CALM      30.10R
WILDWOOD*      MOCLDY    64  62  93 N6        30.10R
MILLVILLE      MOCLDY    61  58  90 CALM      30.10R
WRIGHTSTOWN    MOCLDY    60  57  89 N3        30.11R
MOUNT HOLLY    MOCLDY    60  58  92 CALM      30.11R
TRENTON        MOCLDY    59  53  80 NW3       30.11R

$$
NJZ001>014-031100-
NORTHERN NEW JERSEY

CITY           SKY/WX    TMP DP  RH WIND       PRES   REMARKS
SUSSEX         MOCLDY    50  49  96 CALM      30.14R
ANDOVER*         N/A     54  52  93 CALM      30.14R
MORRISTOWN     MOCLDY    54  54 100 CALM      30.13R
NEWARK         MOCLDY    65  53  65 CALM      30.11R
TETERBORO      MOCLDY    61  51  70 N3        30.10S
CALDWELL       MOCLDY    59  54  83 CALM      30.13R
SOMERVILLE     MOCLDY    54  53  97 CALM      30.11R
ALLAIRE*       MOCLDY    61  57  87 NW3       30.12R

$$
PAZ043-044-047-054-055-060>062-066>071-031100-
EASTERN PENNSYLVANIA

CITY           SKY/WX    TMP DP  RH WIND       PRES   REMARKS
PHILADELPHIA   CLOUDY    66  55  67 N3        30.12R
NORTH PHILA    MOCLDY    62  55  77 N3        30.13R
BLUE BELL*     MOCLDY    56  56  99 CALM      30.13S
DOYLESTOWN     MOCLDY    60  52  74 CALM      30.12R
QUAKERTOWN*    CLEAR     54  54 100 CALM      30.14R
PERKASIE*      FAIR      54  54 100 CALM      30.14S
POTTSTOWN      MOCLDY    54  52  93 CALM      30.15R
LANCASTER      MOCLDY    59  54  83 CALM      30.13R
COATESVILLE    MOCLDY    59  54  82 CALM      30.14R
WEST CHESTER   FAIR      61  54  77 CALM      30.13R
READING        MOCLDY    57  55  93 CALM      30.12R
ALLENTOWN      MOCLDY    55  51  86 CALM      30.13R
QN CITY/ALNTWN FAIR      55  54  94 CALM      30.15R
MOUNT POCONO   PTCLDY    48  47  96 CALM      30.16R
HAZLETON       PTCLDY    50  50 100 CALM      30.18R
LEHIGHTON      CLOUDY    52  52 100 CALM      30.16R
WILKES BARRE   PTCLDY    53  48  83 E8        30.15R

$$
DEZALL-MDZ008-012-015-019-020-031100-
DELAWARE AND EASTERN MARYLAND

CITY           SKY/WX    TMP DP  RH WIND       PRES   REMARKS
WILMINGTON     MOCLDY    63  57  81 N3        30.11R
DOVER          MOCLDY    64  62  91 CALM      30.09R
CHESWOLD       SUNNY     61  59  94 CALM      30.11R
GEORGETOWN     MOCLDY    65  62  90 CALM      30.10R
EASTON         CLEAR     66  64  94 CALM      30.13S
ABERDEEN       CLOUDY    58  58  98 CALM      30.10R
PATUXENT       MOCLDY    69  63  81 CALM      30.09R
OCEAN CITY     MOCLDY    64  63  96 CALM      30.10R
WALLOPS ISLAND MOCLDY    67  64  90 NW3       30.09R
CAMBRIDGE      CLEAR     64  64 100 CALM      30.10R
SALISBURY      MOCLDY    65  63  93 CALM      30.10R

$$
PAZ001-021-NYZ056-072-MDZ011-DCZ001-031100-
OTHER NEARBY LOCATIONS

CITY           SKY/WX    TMP DP  RH WIND       PRES   REMARKS
HARRISBURG     MOCLDY    60  55  83 N3        30.12R
STATE COLLEGE  PTCLDY    52  52 100 CALM      30.14R
WILLIAMSPORT   MOCLDY    54  51  90 CALM      30.13R
BINGHAMTON     CLEAR     50  48  93 CALM      30.14R
NEW YORK CITY  NOT AVBL
BALTIMORE      CLOUDY    64  59  83 CALM      30.10R
WASHINGTON DC  CLOUDY    68  60  75 N3        30.11R

$$



USA.gov is the U.S. government's official web portal to all federal, state and local government web resources and services.